Weather History for Beaumont, TX

Change the Weather History Date:

Tuesday, July 30, 2013

  Actual Average Record
Temperature  
Mean Temperature 83 °F 83 °F  
Max Temperature 92 °F 92 °F 100 °F (1944)
Min Temperature 73 °F 74 °F 68 °F (1994)
Degree Days  
Heating Degree Days 0 0  
Month to date heating degree days 0 0  
Since 1 June heating degree days 0 0  
Since 1 July heating degree days 0 0  
Cooling Degree Days 18 18  
Month to date cooling degree days 554 540  
Year to date cooling degree days 1574 1590  
Since 1 June cooling degree days 1087 1024  
Growing Degree Days 32 (Base 50)    
Moisture  
Dew Point 74 °F    
Average Humidity 73    
Maximum Humidity 94    
Minimum Humidity 52    
Precipitation  
Precipitation 0.00 in 0.18 in 1.25 in (1990)
Month to date precipitation 2.99 5.78  
Year to date precipitation 34.25 33.68  
Snow  
Snow 0.00 in 0.00 in 0.00 in ()
Month to date snowfall 0.0 0.0  
Since 1 June snowfall 0.0 0.0  
Since 1 July snowfall 0.0 0.0  
Snow Depth 0.00 in    
Sea Level Pressure  
Sea Level Pressure 30.09 in    
Wind  
Wind Speed 6 mph (South)    
Max Wind Speed 15 mph    
Max Gust Speed 18 mph    
Visibility 9 miles    
Events      
T = Trace of Precipitation, MM = Missing Value Source: NWS Daily Summary

Daily Weather History Graph

Daily Weather History Graph

Search for Another Location

Airport:

Trip Planner

Search our weather history database for the weather conditions in past years. The results will help you decide how hot, cold, wet, or windy it might be!

Date:

Astronomy

Jul. 30, 2013 Rise Set
Actual Time 6:34 AM CDT 8:10 PM CDT
Civil Twilight 6:08 AM CDT 8:36 PM CDT
Nautical Twilight 5:36 AM CDT 9:07 PM CDT
Astronomical Twilight 5:04 AM CDT 9:40 PM CDT
Moon 12:48 AM CDT (7/30) 2:32 PM CDT (7/30)
Length of Visible Light 14h 28m
Length of Day
13h 36m
Last Quarter, 41% of the Moon is Illuminated
Jul 30
Last Quarter
Aug 6
New
Aug 14
First Quarter
Aug 20
Full
Aug 28
Last Quarter

Hourly Weather History & Observations

Time (CDT) Temp. Heat Index Dew Point Humidity Pressure Visibility Wind Dir Wind Speed Gust Speed Precip Events Conditions
12:53 AM 75.0 °F - 73.0 °F 94% 30.09 in 10.0 mi SSE 5.8 mph - N/A   Clear
1:53 AM 75.9 °F - 73.9 °F 94% 30.08 in 9.0 mi South 5.8 mph - N/A   Clear
2:53 AM 75.0 °F - 73.0 °F 94% 30.08 in 9.0 mi South 4.6 mph - N/A   Clear
3:53 AM 75.9 °F - 73.0 °F 91% 30.07 in 10.0 mi SSW 3.5 mph - N/A   Clear
4:53 AM 75.9 °F - 73.0 °F 91% 30.08 in 9.0 mi South 3.5 mph - N/A   Clear
5:53 AM 73.9 °F - 72.0 °F 93% 30.10 in 9.0 mi South 3.5 mph - N/A   Clear
6:53 AM 75.9 °F - 73.0 °F 91% 30.11 in 8.0 mi Calm Calm - N/A   Clear
7:53 AM 78.1 °F - 75.9 °F 93% 30.12 in 7.0 mi Calm Calm - N/A   Clear
8:53 AM 82.9 °F 90.8 °F 75.9 °F 79% 30.13 in 9.0 mi SSW 6.9 mph - N/A   Clear
9:53 AM 84.9 °F 93.3 °F 75.0 °F 72% 30.13 in 10.0 mi SW 8.1 mph - N/A   Partly Cloudy
10:53 AM 89.1 °F 99.1 °F 75.0 °F 63% 30.14 in 10.0 mi Variable 6.9 mph - N/A   Partly Cloudy
11:53 AM 90.0 °F 99.0 °F 73.9 °F 59% 30.13 in 10.0 mi South 6.9 mph - N/A   Clear
12:53 PM 91.0 °F 99.3 °F 73.0 °F 55% 30.11 in 10.0 mi SSW 6.9 mph - N/A   Clear
1:53 PM 91.0 °F 98.2 °F 72.0 °F 53% 30.10 in 8.0 mi South 8.1 mph - N/A   Clear
2:53 PM 91.0 °F 101.6 °F 75.0 °F 59% 30.09 in 10.0 mi South 10.4 mph - 0.00 in   Partly Cloudy
3:53 PM 91.0 °F 100.4 °F 73.9 °F 57% 30.08 in 10.0 mi South 10.4 mph - N/A   Clear
4:53 PM 90.0 °F 96.9 °F 72.0 °F 55% 30.07 in 10.0 mi South 11.5 mph 16.1 mph N/A   Clear
5:53 PM 89.1 °F 96.0 °F 72.0 °F 57% 30.06 in 10.0 mi South 8.1 mph - N/A   Clear
6:53 PM 86.0 °F 93.0 °F 73.0 °F 65% 30.06 in 10.0 mi South 12.7 mph - N/A   Clear
7:53 PM 82.0 °F 87.9 °F 73.9 °F 76% 30.05 in 10.0 mi South 8.1 mph - N/A   Clear
8:53 PM 78.1 °F - 73.9 °F 87% 30.05 in 10.0 mi South 5.8 mph - N/A   Clear
9:53 PM 77.0 °F - 73.9 °F 90% 30.07 in 10.0 mi Calm Calm - N/A   Clear
10:53 PM 75.9 °F - 73.9 °F 94% 30.08 in 9.0 mi Calm Calm - 0.00 in   Clear
11:53 PM 75.0 °F - 73.0 °F 94% 30.08 in 8.0 mi SSW 3.5 mph - N/A   Clear